Weather History for Chicopee, MA

Change the Weather History Date:

Friday, November 23, 2012

  Actual Average Record
Temperature  
Mean Temperature 40 °F -  
Max Temperature 57 °F 44 °F 64 °F (1999)
Min Temperature 24 °F 28 °F 17 °F (2005)
Degree Days  
Heating Degree Days 24    
Moisture  
Dew Point 32 °F    
Average Humidity 94    
Maximum Humidity 100    
Minimum Humidity 51    
Precipitation  
Precipitation 0.00 in - - ()
Sea Level Pressure  
Sea Level Pressure 29.99 in    
Wind  
Wind Speed 2 mph (South)    
Max Wind Speed 15 mph    
Max Gust Speed -    
Visibility 3 miles    
Events Fog , Rain    
Averages and records for this station are not official NWS values.
T = Trace of Precipitation, MM = Missing Value Source: NWS Daily Summary

Daily Weather History Graph

Daily Weather History Graph

Search for Another Location

Airport:

Trip Planner

Search our weather history database for the weather conditions in past years. The results will help you decide how hot, cold, wet, or windy it might be!

Date:

Astronomy

Nov. 23, 2012 Rise Set
Actual Time 6:50 AM EST 4:22 PM EST
Civil Twilight 6:19 AM EST 4:53 PM EST
Nautical Twilight 5:45 AM EST 5:27 PM EST
Astronomical Twilight 5:12 AM EST 6:00 PM EST
Moon 1:39 PM EST 2:02 AM EST
Length of Visible Light 10h 33m
Length of Day
9h 31m
Waxing Gibbous, 79% of the Moon is Illuminated
Nov 23
Waxing Gibbous
Nov 28
Full
Dec 6
Last Quarter
Dec 13
New
Dec 20
First Quarter

Hourly Weather History & Observations

Time (EST) Temp. Windchill Dew Point Humidity Pressure Visibility Wind Dir Wind Speed Gust Speed Precip Events Conditions
12:00 AM 26.6 °F 22.6 °F 24.8 °F 93% 30.14 in 1.5 mi NE 3.5 mph - N/A   Clear
12:01 AM 26.6 °F 22.6 °F 24.8 °F 93% 30.14 in 1.8 mi NE 3.5 mph - N/A   Clear
12:02 AM 26.6 °F 22.6 °F 24.8 °F 93% 30.14 in 2.5 mi NE 3.5 mph - N/A   Clear
12:03 AM 26.6 °F 22.6 °F 24.8 °F 93% 30.14 in 3.0 mi NE 3.5 mph - N/A   Clear
12:55 AM 26.6 °F - 25.9 °F 97% 30.12 in 10.0 mi Calm Calm - N/A   Clear
1:06 AM 26.6 °F - 26.6 °F 100% 30.12 in 2.5 mi Calm Calm - N/A   Clear
1:07 AM 26.6 °F - 26.6 °F 100% 30.12 in 1.8 mi Calm Calm - N/A   Clear
1:08 AM 26.6 °F - 26.6 °F 100% 30.12 in 1.5 mi Calm Calm - N/A   Clear
1:09 AM 26.6 °F - 26.6 °F 100% 30.12 in 1.2 mi Calm Calm - N/A   Clear
1:10 AM 26.6 °F - 26.6 °F 100% 30.12 in 1.0 mi Calm Calm - N/A   Clear
1:16 AM 26.6 °F - 24.8 °F 93% 30.12 in 1.2 mi Calm Calm - N/A   Clear
1:17 AM 26.6 °F - 24.8 °F 93% 30.12 in 1.5 mi Calm Calm - N/A   Clear
1:18 AM 26.6 °F - 24.8 °F 93% 30.12 in 1.8 mi Calm Calm - N/A   Clear
1:19 AM 26.6 °F - 24.8 °F 93% 30.12 in 2.5 mi Calm Calm - N/A   Clear
1:20 AM 26.6 °F - 24.8 °F 93% 30.12 in 4.0 mi Calm Calm - N/A   Clear
1:23 AM 26.6 °F - 24.8 °F 93% 30.11 in 2.5 mi Calm Calm - N/A   Clear
1:24 AM 26.6 °F - 24.8 °F 93% 30.11 in 1.8 mi Calm Calm - N/A   Clear
1:26 AM 26.6 °F - 24.8 °F 93% 30.12 in 1.5 mi Calm Calm - N/A   Clear
1:32 AM 26.6 °F - 24.8 °F 93% 30.12 in 2.0 mi Calm Calm - N/A   Clear
1:33 AM 26.6 °F - 24.8 °F 93% 30.12 in 3.0 mi Calm Calm - N/A   Clear
1:55 AM 26.4 °F - 25.3 °F 96% 30.12 in 9.0 mi Calm Calm - N/A   Clear
2:51 AM 24.8 °F - 24.8 °F 100% 30.10 in 2.5 mi Calm Calm - N/A   Clear
2:52 AM 24.8 °F - 24.8 °F 100% 30.10 in 1.8 mi Calm Calm - N/A   Clear
2:53 AM 24.8 °F - 24.8 °F 100% 30.10 in 1.5 mi Calm Calm - N/A   Clear
2:55 AM 25.2 °F - 24.3 °F 96% 30.09 in 1.5 mi Calm Calm - N/A   Clear
2:56 AM 24.8 °F - 24.8 °F 100% 30.09 in 1.2 mi Calm Calm - N/A   Clear
3:00 AM 24.8 °F - 24.8 °F 100% 30.09 in 1.5 mi Calm Calm - N/A   Clear
3:01 AM 24.8 °F - 24.8 °F 100% 30.09 in 1.8 mi Calm Calm - N/A   Clear
3:02 AM 24.8 °F - 24.8 °F 100% 30.09 in 2.0 mi Calm Calm - N/A   Clear
3:03 AM 24.8 °F - 24.8 °F 100% 30.09 in 3.0 mi Calm Calm - N/A   Clear
3:47 AM 24.8 °F - 23.0 °F 93% 30.08 in 2.5 mi Calm Calm - N/A   Clear
3:55 AM 25.2 °F - 24.3 °F 96% 30.08 in 2.5 mi Calm Calm - N/A   Clear
4:00 AM 24.8 °F - 24.8 °F 100% 30.08 in 2.5 mi Calm Calm - N/A   Clear
4:01 AM 26.6 °F - 24.8 °F 93% 30.08 in 1.8 mi Calm Calm - N/A   Partly Cloudy
4:02 AM 26.6 °F - 24.8 °F 93% 30.08 in 1.5 mi Calm Calm - N/A   Partly Cloudy
4:03 AM 26.6 °F - 24.8 °F 93% 30.08 in 1.2 mi Calm Calm - N/A   Partly Cloudy
4:09 AM 26.6 °F - 24.8 °F 93% 30.08 in 1.5 mi Calm Calm - N/A   Scattered Clouds
4:10 AM 26.6 °F - 24.8 °F 93% 30.08 in 1.8 mi Calm Calm - N/A   Mostly Cloudy
4:11 AM 26.6 °F - 24.8 °F 93% 30.08 in 2.0 mi Calm Calm - N/A   Mostly Cloudy
4:12 AM 24.8 °F - 24.8 °F 100% 30.08 in 3.0 mi Calm Calm - N/A   Scattered Clouds
4:13 AM 24.8 °F - 24.8 °F 100% 30.08 in 4.0 mi Calm Calm - N/A   Mostly Cloudy
4:31 AM 24.8 °F - 24.8 °F 100% 30.08 in 10.0 mi Calm Calm - N/A   Overcast
4:44 AM 26.6 °F - 24.8 °F 93% 30.07 in 6.0 mi Calm Calm - N/A   Overcast
4:49 AM 26.6 °F - 26.6 °F 100% 30.07 in 2.5 mi Calm Calm - N/A   Overcast
4:51 AM 26.6 °F - 26.6 °F 100% 30.07 in 2.0 mi Calm Calm - N/A   Overcast
4:52 AM 26.6 °F - 26.6 °F 100% 30.07 in 1.8 mi Calm Calm - N/A   Overcast
4:55 AM 27.0 °F - 26.1 °F 96% 30.07 in 1.5 mi Calm Calm - N/A   Overcast
4:57 AM 26.6 °F - 26.6 °F 100% 30.07 in 0.8 mi Calm Calm - N/A   Mist
4:59 AM 26.6 °F - 26.6 °F 100% 30.07 in 0.5 mi Calm Calm - N/A Fog Light Freezing Fog
5:00 AM 26.6 °F - 26.6 °F 100% 30.07 in 0.5 mi Calm Calm - N/A Fog Light Freezing Fog
5:01 AM 26.6 °F - 26.6 °F 100% 30.07 in 0.5 mi Calm Calm - N/A Fog Light Freezing Fog
5:02 AM 26.6 °F - 26.6 °F 100% 30.07 in 0.2 mi Calm Calm - N/A Fog Light Freezing Fog
5:03 AM 26.6 °F - 26.6 °F 100% 30.07 in 0.2 mi Calm Calm - N/A Fog Light Freezing Fog
5:04 AM 26.6 °F - 26.6 °F 100% 30.07 in 0.2 mi Calm Calm - N/A Fog Light Freezing Fog
5:05 AM 26.6 °F - 26.6 °F 100% 30.06 in 0.2 mi Calm Calm - N/A Fog Light Freezing Fog
5:06 AM 26.6 °F - 26.6 °F 100% 30.06 in 0.2 mi Calm Calm - N/A Fog Light Freezing Fog
5:08 AM 28.4 °F - 26.6 °F 93% 30.06 in 0.2 mi Calm Calm - N/A Fog Light Freezing Fog
5:09 AM 28.4 °F - 26.6 °F 93% 30.06 in 0.2 mi Calm Calm - N/A Fog Light Freezing Fog
5:10 AM 28.4 °F - 26.6 °F 93% 30.06 in 0.2 mi Calm Calm - N/A Fog Light Freezing Fog
5:14 AM 28.4 °F - 26.6 °F 93% 30.06 in 0.2 mi Calm Calm - N/A Fog Light Freezing Fog
5:15 AM 28.4 °F - 26.6 °F 93% 30.06 in 0.2 mi Calm Calm - N/A Fog Light Freezing Drizzle
5:16 AM 28.4 °F - 26.6 °F 93% 30.06 in 0.2 mi Calm Calm - N/A Fog Light Freezing Drizzle
5:22 AM 28.4 °F - 26.6 °F 93% 30.06 in 0.2 mi Calm Calm - N/A Fog Light Freezing Drizzle
5:28 AM 28.4 °F - 28.4 °F 100% 30.06 in 0.2 mi Calm Calm - N/A Fog Light Freezing Drizzle
5:32 AM 28.4 °F - 28.4 °F 100% 30.06 in 0.2 mi Calm Calm - N/A Fog Light Freezing Fog
5:44 AM 28.4 °F - 26.6 °F 93% 30.06 in 0.2 mi Calm Calm - N/A Fog Light Freezing Drizzle
5:55 AM 28.2 °F - 27.5 °F 97% 30.06 in 0.2 mi Calm Calm - 0.00 in Fog Light Freezing Drizzle
6:13 AM 28.4 °F - 28.4 °F 100% 30.05 in 0.2 mi Calm Calm - N/A Fog Light Freezing Fog
6:17 AM 28.4 °F - 28.4 °F 100% 30.05 in 0.2 mi Calm Calm - N/A Fog Light Freezing Fog
6:36 AM 30.2 °F - 30.2 °F 100% 30.05 in 0.2 mi Calm Calm - N/A Fog Light Freezing Fog
6:55 AM 30.6 °F - 30.0 °F 98% 30.04 in 0.2 mi Calm Calm - 0.00 in Fog Light Freezing Fog
7:52 AM 32.0 °F - 32.0 °F 100% 30.04 in 0.2 mi Calm Calm - N/A Fog Light Freezing Fog
7:55 AM 32.0 °F - 31.5 °F 98% 30.04 in 0.2 mi Calm Calm - N/A Fog Light Freezing Fog
8:14 AM 32.0 °F 28.7 °F 32.0 °F 100% 30.03 in 0.2 mi South 3.5 mph - N/A Fog Fog
8:43 AM 33.8 °F - 32.0 °F 93% 30.02 in 0.2 mi Calm Calm - N/A Fog Fog
8:55 AM 33.6 °F - 33.3 °F 99% 30.01 in 0.2 mi Calm Calm - N/A Fog Fog
9:05 AM 33.8 °F - 33.8 °F 100% 30.01 in 0.2 mi Calm Calm - N/A Fog Fog
9:28 AM 35.6 °F 32.8 °F 35.6 °F 100% 30.00 in 0.2 mi WNW 3.5 mph - N/A Fog Fog
9:55 AM 36.5 °F - 36.0 °F 98% 30.00 in 0.2 mi Calm Calm - N/A Fog Fog
9:58 AM 37.4 °F - 35.6 °F 93% 30.00 in 0.2 mi Calm Calm - N/A Fog Fog
10:06 AM 37.4 °F - 37.4 °F 100% 29.99 in 0.2 mi Calm Calm - N/A Fog Fog
10:15 AM 37.4 °F - 37.4 °F 100% 29.99 in 0.2 mi Calm Calm - N/A Fog Fog
10:21 AM 37.4 °F - 37.4 °F 100% 29.99 in 0.2 mi Calm Calm - N/A Fog Fog
10:26 AM 39.2 °F - 37.4 °F 93% 29.98 in 0.2 mi Calm Calm - N/A Fog Fog
10:27 AM 39.2 °F - 37.4 °F 93% 29.98 in 0.2 mi Calm Calm - N/A Fog Fog
10:29 AM 39.2 °F 37.0 °F 39.2 °F 100% 29.98 in 0.2 mi SE 3.5 mph - N/A Fog Fog
10:30 AM 39.2 °F 37.0 °F 39.2 °F 100% 29.98 in 0.5 mi SE 3.5 mph - N/A Fog Fog
10:36 AM 39.2 °F 37.0 °F 39.2 °F 100% 29.97 in 0.5 mi SE 3.5 mph - N/A Fog Fog
10:37 AM 39.2 °F 35.9 °F 39.2 °F 100% 29.97 in 0.5 mi SSE 4.6 mph - N/A Fog Fog
10:39 AM 39.2 °F 37.0 °F 39.2 °F 100% 29.97 in 0.8 mi Variable 3.5 mph - N/A   Mist
10:41 AM 39.2 °F - 39.2 °F 100% 29.96 in 1.0 mi Calm Calm - N/A   Mist
10:43 AM 41.0 °F - 39.2 °F 93% 29.96 in 1.2 mi Calm Calm - N/A   Overcast
10:44 AM 41.0 °F - 39.2 °F 93% 29.96 in 1.8 mi Calm Calm - N/A   Overcast
10:45 AM 41.0 °F - 39.2 °F 93% 29.96 in 2.0 mi Calm Calm - N/A   Overcast
10:46 AM 41.0 °F - 39.2 °F 93% 29.96 in 2.5 mi Calm Calm - N/A   Overcast
10:47 AM 41.0 °F - 39.2 °F 93% 29.96 in 2.5 mi Calm Calm - N/A   Overcast
10:48 AM 41.0 °F - 41.0 °F 100% 29.96 in 3.0 mi Calm Calm - N/A   Mostly Cloudy
10:55 AM 42.3 °F - 41.7 °F 98% 29.95 in 6.0 mi Calm Calm - N/A   Mostly Cloudy
10:56 AM 42.8 °F - 42.8 °F 100% 29.95 in 7.0 mi Calm Calm - N/A   Scattered Clouds
11:55 AM 52.2 °F - 45.9 °F 79% 29.89 in 10.0 mi South 10.4 mph - N/A   Clear
12:55 PM 55.8 °F - 38.5 °F 52% 29.85 in 10.0 mi SSW 10.4 mph - N/A   Clear
1:55 PM 57.0 °F - 38.8 °F 51% 29.82 in 10.0 mi South 11.5 mph - N/A   Scattered Clouds
2:55 PM 56.5 °F - 38.7 °F 51% 29.78 in 10.0 mi South 15.0 mph - N/A   Clear
3:55 PM 52.7 °F - 38.1 °F 58% 29.78 in 10.0 mi South 11.5 mph - N/A   Clear
4:55 PM 49.6 °F - 38.7 °F 66% 29.77 in 10.0 mi SSW 6.9 mph - N/A   Clear
5:55 PM 48.7 °F - 40.8 °F 74% 29.76 in 10.0 mi South 8.1 mph - N/A   Scattered Clouds
6:55 PM 48.6 °F - 42.8 °F 80% 29.75 in 10.0 mi South 12.7 mph - N/A   Mostly Cloudy
7:55 PM 48.4 °F - 43.5 °F 83% 29.74 in 10.0 mi South 10.4 mph - N/A   Overcast
8:17 PM 48.2 °F - 42.8 °F 82% 29.73 in 10.0 mi South 10.4 mph - N/A   Overcast
8:26 PM 48.2 °F - 42.8 °F 82% 29.74 in 10.0 mi South 11.5 mph - N/A   Overcast
8:28 PM 48.2 °F - 42.8 °F 82% 29.73 in 10.0 mi South 11.5 mph - N/A   Overcast
8:55 PM 47.8 °F - 43.7 °F 86% 29.73 in 10.0 mi South 11.5 mph - N/A   Overcast
9:20 PM 48.2 °F - 44.6 °F 87% 29.71 in 10.0 mi South 10.4 mph - N/A   Overcast
9:24 PM 48.2 °F - 44.6 °F 87% 29.71 in 10.0 mi South 9.2 mph - N/A   Overcast
9:36 PM 48.2 °F - 44.6 °F 87% 29.71 in 10.0 mi South 9.2 mph - N/A   Light Drizzle
9:45 PM 48.2 °F - 44.6 °F 87% 29.70 in 10.0 mi South 9.2 mph - N/A   Overcast
9:55 PM 47.3 °F - 43.9 °F 88% 29.70 in 10.0 mi South 8.1 mph - 0.00 in   Overcast
10:04 PM 48.2 °F - 44.6 °F 87% 29.70 in 10.0 mi South 9.2 mph - N/A   Overcast
10:28 PM 48.2 °F - 44.6 °F 87% 29.68 in 10.0 mi South 9.2 mph - N/A Rain Light Rain
10:55 PM 46.8 °F - 44.6 °F 92% 29.67 in 10.0 mi South 8.1 mph - 0.00 in   Overcast
11:10 PM 46.4 °F 42.4 °F 44.6 °F 93% 29.66 in 10.0 mi South 8.1 mph - N/A   Light Drizzle
11:24 PM 46.4 °F 42.9 °F 44.6 °F 93% 29.65 in 10.0 mi South 6.9 mph - N/A   Overcast
11:42 PM 46.4 °F 42.4 °F 44.6 °F 93% 29.65 in 10.0 mi South 8.1 mph - N/A   Light Drizzle
11:55 PM 46.4 °F 42.4 °F 45.3 °F 96% 29.65 in 10.0 mi South 8.1 mph - 0.00 in Rain Light Rain